SQ4MUI-13 Weather Reports


time (UTC)temp
C
wind
direction
speed
KPH
gust
KPH
rain 1hr
cm
rain 24hr
cm
rain mn
cm
humidity
%
barometer
mb
20260506142447 -17 0.0 0.0 0.00 0.00 0.00 29 1005.1
20260506141444 -17 0.0 0.0 0.00 0.00 0.00 29 1004.8
20260506140441 -17 0.0 0.0 0.00 0.00 0.00 31 1004.9
20260506135438 -17 0.0 0.0 0.00 0.00 0.00 31 1004.9
20260506134435 -17 0.0 0.0 0.00 0.00 0.00 30 1004.9
20260506133432 -17 0.0 0.0 0.00 0.00 0.00 29 1005.1
20260506132429 -17 0.0 0.0 0.00 0.00 0.00 30 1005.0
20260506131426 -17 0.0 0.0 0.00 0.00 0.00 29 1005.3
20260506130423 -17 0.0 0.0 0.00 0.00 0.00 28 1005.2
20260506125420 -17 0.0 0.0 0.00 0.00 0.00 30 1005.2
20260506124417 -17 0.0 0.0 0.00 0.00 0.00 30 1004.9
20260506123414 -17 0.0 0.0 0.00 0.00 0.00 30 1005.0
20260506122411 -17 0.0 0.0 0.00 0.00 0.00 30 1005.0
20260506121408 -17 0.0 0.0 0.00 0.00 0.00 31 1005.3
20260506120405 -17 0.0 0.0 0.00 0.00 0.00 31 1005.3
20260506115402 -17 0.0 0.0 0.00 0.00 0.00 31 1005.5
20260506114359 -17 0.0 0.0 0.00 0.00 0.00 31 1005.8
20260506113355 -17 0.0 0.0 0.00 0.00 0.00 30 1005.9
20260506112352 -17 0.0 0.0 0.00 0.00 0.00 29 1005.9
20260506111350 -17 0.0 0.0 0.00 0.00 0.00 33 1005.9
20260506110346 -17 0.0 0.0 0.00 0.00 0.00 32 1005.9
20260506105343 -17 0.0 0.0 0.00 0.00 0.00 33 1006.0
20260506104340 -17 0.0 0.0 0.00 0.00 0.00 36 1006.0
20260506103337 -17 0.0 0.0 0.00 0.00 0.00 38 1006.1
20260506102334 -17 0.0 0.0 0.00 0.00 0.00 38 1006.2
20260506101330 -17 0.0 0.0 0.00 0.00 0.00 39 1006.4
20260506100327 -17 0.0 0.0 0.00 0.00 0.00 40 1006.3
20260506095324 -17 0.0 0.0 0.00 0.00 0.00 40 1006.4
20260506094321 -17 0.0 0.0 0.00 0.00 0.00 42 1006.5
20260506093318 -17 0.0 0.0 0.00 0.00 0.00 45 1006.5
20260506092315 -17 0.0 0.0 0.00 0.00 0.00 47 1006.6
20260506091312 -17 0.0 0.0 0.00 0.00 0.00 51 1006.8
20260506090308 -17 0.0 0.0 0.00 0.00 0.00 61 1006.9
20260506085306 -17 0.0 0.0 0.00 0.00 0.00 66 1007.0
20260506084302 -17 0.0 0.0 0.00 0.00 0.00 74 1007.0
20260506083259 -17 0.0 0.0 0.00 0.00 0.00 78 1006.9
20260506082256 -17 0.0 0.0 0.00 0.00 0.00 80 1007.0
20260506081253 -17 0.0 0.0 0.00 0.00 0.00 82 1007.2
20260506080250 -17 0.0 0.0 0.00 0.00 0.00 84 1007.4
20260506073241 -17 0.0 0.0 0.00 0.00 0.00 98 1007.5
20260506072238 -17 0.0 0.0 0.00 0.00 0.00 10 1007.6
20260506071234 -17 0.0 0.0 0.00 0.00 0.00 10 1007.5
20260506070231 -17 0.0 0.0 0.00 0.00 0.00 10 1007.5
20260506061709 -17 0.0 0.0 0.00 0.00 0.00 10 1007.7
20260506060706 -17 0.0 0.0 0.00 0.00 0.00 10 1007.7
20260506050647 -17 0.0 0.0 0.00 0.00 0.00 10 1007.9
20260506044641 -17 0.0 0.0 0.00 0.00 0.00 10 1007.8
20260506043638 -17 0.0 0.0 0.00 0.00 0.00 10 1007.8
20260506042635 -17 0.0 0.0 0.00 0.00 0.00 10 1007.8
20260506041632 -17 0.0 0.0 0.00 0.00 0.00 10 1007.6
20260506040629 -17 0.0 0.0 0.00 0.00 0.00 10 1007.8
20260506035626 -17 0.0 0.0 0.00 0.00 0.00 10 1007.6
20260506034623 -17 0.0 0.0 0.00 0.00 0.00 10 1007.6
20260506033620 -17 0.0 0.0 0.00 0.00 0.00 10 1007.5
20260506032617 -17 0.0 0.0 0.00 0.00 0.00 10 1007.5
20260506031614 -17 0.0 0.0 0.00 0.00 0.00 10 1007.5
20260506030611 -17 0.0 0.0 0.00 0.00 0.00 10 1007.6
20260506025608 -17 0.0 0.0 0.00 0.00 0.00 10 1007.5
20260506024605 -17 0.0 0.0 0.00 0.00 0.00 10 1007.6
20260506023602 -17 0.0 0.0 0.00 0.00 0.00 10 1007.6
20260506022557 -17 0.0 0.0 0.00 0.00 0.00 10 1007.4
20260506021554 -17 0.0 0.0 0.00 0.00 0.00 10 1007.4
20260506020551 -17 0.0 0.0 0.00 0.00 0.00 10 1007.3
20260506015548 -17 0.0 0.0 0.00 0.00 0.00 10 1007.3
20260506014545 -17 0.0 0.0 0.00 0.00 0.00 10 1007.2
20260506013542 -17 0.0 0.0 0.00 0.00 0.00 10 1007.2
20260506012539 -17 0.0 0.0 0.00 0.00 0.00 10 1007.2
20260506011536 -17 0.0 0.0 0.00 0.00 0.00 10 1007.2
20260506010533 -17 0.0 0.0 0.00 0.00 0.00 10 1007.1
20260506005530 -17 0.0 0.0 0.00 0.00 0.00 10 1007.1
20260506004527 -17 0.0 0.0 0.00 0.00 0.00 10 1007.1
20260506003524 -17 0.0 0.0 0.00 0.00 0.00 10 1007.1
20260506002521 -17 0.0 0.0 0.00 0.00 0.00 10 1007.2
20260506001518 -17 0.0 0.0 0.00 0.00 0.00 10 1007.1
20260506000515 -17 0.0 0.0 0.00 0.00 0.00 10 1007.0
20260505235511 -17 0.0 0.0 0.00 0.00 0.00 10 1007.2
20260505234508 -17 0.0 0.0 0.00 0.00 0.00 10 1007.2
20260505233505 -17 0.0 0.0 0.00 0.00 0.00 10 1007.3
20260505232502 -17 0.0 0.0 0.00 0.00 0.00 10 1007.4
20260505231500 -17 0.0 0.0 0.00 0.00 0.00 10 1007.4
20260505230458 -17 0.0 0.0 0.00 0.00 0.00 10 1007.5
20260505225455 -17 0.0 0.0 0.00 0.00 0.00 10 1007.5
20260505224452 -17 0.0 0.0 0.00 0.00 0.00 10 1007.4
20260505223449 -17 0.0 0.0 0.00 0.00 0.00 10 1007.4
20260505222446 -17 0.0 0.0 0.00 0.00 0.00 10 1007.5
20260505221442 -17 0.0 0.0 0.00 0.00 0.00 10 1007.5
20260505220439 -17 0.0 0.0 0.00 0.00 0.00 10 1007.5
20260505215436 -17 0.0 0.0 0.00 0.00 0.00 10 1007.5
20260505214433 -17 0.0 0.0 0.00 0.00 0.00 10 1007.5
20260505213430 -17 0.0 0.0 0.00 0.00 0.00 10 1007.6
20260505212427 -17 0.0 0.0 0.00 0.00 0.00 10 1007.6
20260505211424 -17 0.0 0.0 0.00 0.00 0.00 10 1007.6
20260505210421 -17 0.0 0.0 0.00 0.00 0.00 10 1007.3
20260505205418 -17 0.0 0.0 0.00 0.00 0.00 10 1007.3
20260505204415 -17 0.0 0.0 0.00 0.00 0.00 10 1007.3
20260505203411 -17 0.0 0.0 0.00 0.00 0.00 10 1007.4
20260505202408 -17 0.0 0.0 0.00 0.00 0.00 10 1007.4
20260505201405 -17 0.0 0.0 0.00 0.00 0.00 10 1007.3
20260505200402 -17 0.0 0.0 0.00 0.00 0.00 10 1007.3
20260505195400 -17 0.0 0.0 0.00 0.00 0.00 10 1007.4
20260505194358 -17 0.0 0.0 0.00 0.00 0.00 10 1007.4
20260505193355 -17 0.0 0.0 0.00 0.00 0.00 10 1007.4
20260505192352 -17 0.0 0.0 0.00 0.00 0.00 10 1007.4
20260505191349 -17 0.0 0.0 0.00 0.00 0.00 10 1007.4
20260505190346 -17 0.0 0.0 0.00 0.00 0.00 10 1007.4
20260505185343 -17 0.0 0.0 0.00 0.00 0.00 10 1007.3
20260505184340 -17 0.0 0.0 0.00 0.00 0.00 10 1007.3
20260505183337 -17 0.0 0.0 0.00 0.00 0.00 98 1007.3
20260505182333 -17 0.0 0.0 0.00 0.00 0.00 95 1007.3
20260505181330 -17 0.0 0.0 0.00 0.00 0.00 92 1007.3
20260505180327 -17 0.0 0.0 0.00 0.00 0.00 89 1007.3
20260505175324 -17 0.0 0.0 0.00 0.00 0.00 86 1007.2
20260505174321 -17 0.0 0.0 0.00 0.00 0.00 81 1007.2
20260505173318 -17 0.0 0.0 0.00 0.00 0.00 74 1007.3
20260505172315 -17 0.0 0.0 0.00 0.00 0.00 70 1007.2
20260505171312 -17 0.0 0.0 0.00 0.00 0.00 64 1007.2
20260505170309 -17 0.0 0.0 0.00 0.00 0.00 57 1007.3
20260505165306 -17 0.0 0.0 0.00 0.00 0.00 41 1007.3
20260505164302 -17 0.0 0.0 0.00 0.00 0.00 27 1007.2